Location: Vihti�l�
(61.3833°N, 23.0667°E)
Time: 04:12:16
(UTC+00:00)

YAOGAN 6 - Pass Details

Date: 29 November 2020
Orbit: 466 x 502 km, 97.0° (Epoch: 22 January)

Event Time Altitude Azimuth Distance (km) Brightness Sun altitude
Rises 05:18:59 0° 13° (NNE) 2,547 6.1 -11.6°
Reaches altitude 10° 05:21:06 10° 9° (N) 1,658 5.1 -11.4°
Maximum altitude 05:24:34 53° 292° (WNW) 591 2.6 -11.0°
Drops below altitude 10° 05:27:59 10° 215° (SW) 1,632 5.1 -10.7°
Sets 05:30:02 0° 211° (SSW) 2,502 6.1 -10.4°
